Location: Rockford
(42.2710°N, 89.0940°W)
Time: 12:25:50
(UTC-06:00)

Daily predictions for brighter satellites

Satellite Brightness Start Highest point End
(mag) Time Altitude Azimuth Time Altitude Azimuth Time Altitude Azimuth
CSL-04 Rocket 3.7 16:51:51 10° SSE 16:57:02 60° ENE 17:02:19 10° N
Cosmos 1703 Rocket 4.4 16:53:24 10° SSE 16:57:16 30° E 17:01:09 10° NNE
Tsikada Rocket 4.0 16:52:04 10° N 16:58:16 88° E 17:04:27 10° S
Cosmos 1484 Rocket 3.1 16:55:15 10° SE 16:58:56 43° ENE 17:02:42 10° N
Cosmos 1340 3.7 16:55:33 10° SSW 16:59:12 50° WNW 17:02:55 10° N
Cosmos 1486 Rocket 4.1 16:57:59 10° S 17:03:07 62° ESE 17:08:18 10° NNE
Cosmos 2082 Rocket 2.7 16:58:11 10° N 17:03:28 37° ENE 17:08:41 10° SE
IRAS Rocket 4.2 16:58:35 10° SSE 17:04:08 84° ENE 17:09:40 10° NNW
Cosmos 1933 4.5 17:01:22 10° SSW 17:05:16 47° WNW 17:09:10 10° N
CENTAUR R/B 3.5 17:00:24 10° WSW 17:06:17 45° NW 17:12:59 10° NNE
ERS-2 3.4 17:05:38 10° ESE 17:08:24 20° ENE 17:11:11 10° NNE
COSMOS 2455 3.4 17:04:16 10° SW 17:10:10 58° NW 17:16:08 10° NNE
CZ-4 R/B 1.7 17:06:50 10° SE 17:10:26 40° ENE 17:14:03 10° N
Cosmos 972 4.3 17:05:50 10° NNW 17:10:50 75° ENE 17:15:41 10° SSE
Meteor 1-20 Rocket 4.2 17:10:05 10° N 17:15:35 61° ENE 17:20:59 10° SSE
Okean 2 Rocket 4.1 17:12:40 10° NNE 17:16:26 25° ENE 17:20:10 10° SE
Cosmos 1633 3.0 17:15:43 10° N 17:19:12 40° ENE 17:22:39 10° SSE
Cosmos 1733 Rocket 4.3 17:16:41 10° NNW 17:20:56 46° W 17:25:12 10° SSW
Meteor 1-25 Rocket 4.3 17:15:15 10° N 17:21:07 76° E 17:26:54 10° SSE
Cosmos 1908 Rocket 3.4 17:17:24 10° N 17:21:46 74° E 17:26:04 10° SSE
Cosmos 1354 Rocket 4.3 17:17:09 10° S 17:22:11 47° ESE 17:27:13 10° NNE
Cosmos 405 Rocket 3.9 17:20:00 10° SE 17:22:55 21° E 17:25:14 13° NE
SKYMED 2 4.4 17:21:29 10° NE 17:25:17 29° E 17:29:03 10° SSE
Cosmos 1844 Rocket 4.5 17:21:04 10° WSW 17:25:51 28° NW 17:30:38 10° N
Cosmos 1782 2.9 17:24:37 10° S 17:28:32 54° E 17:32:28 10° NNE
CZ-2C R/B 3.7 17:24:31 10° NNE 17:28:58 59° E 17:33:29 10° S
BREEZE-M R/B 2.3 17:26:31 10° WNW 17:29:07 80° SSW 17:33:15 10° SE
Cosmos 1464 Rocket 4.2 17:24:24 10° SSE 17:30:11 46° E 17:36:01 10° NNE
BREEZE-M DEB (TANK) 2.9 17:29:11 10° NW 17:31:03 28° NNE 17:32:13 20° ENE
CZ-2C R/B 4.5 17:28:18 10° SSW 17:32:47 32° W 17:37:23 10° NNW
SPOT 3 Rocket 4.1 17:29:00 10° SE 17:33:42 36° ENE 17:38:25 10° N
Cosmos 44 Rocket 3.6 17:30:20 10° NNW 17:35:02 46° NE 17:39:49 10° SE
FENGYUN 3A 4.2 17:34:15 10° SE 17:39:06 35° ENE 17:43:58 10° N
Cosmos 292 Rocket 4.0 17:34:51 10° N 17:39:24 43° ENE 17:43:56 10° SE
Cosmos 2233 Rocket 4.5 17:34:54 10° SSW 17:41:05 64° W 17:47:16 10° N
Okean 1-7 3.0 17:36:59 10° S 17:41:18 63° E 17:45:40 10° NNE
Sich 1 Rocket 3.9 17:43:49 10° NNW 17:48:14 69° W 17:52:40 10° S
Meteor 1-27 Rocket 4.2 17:43:30 10° SSE 17:49:00 42° E 17:54:33 10° NNE
Lacrosse 5 3.9 17:51:19 10° NW 17:54:13 15° N 17:56:22 12° NNE
Cosmos 44 3.1 17:49:53 10° NNW 17:54:34 74° NE 17:59:31 10° SE
Cosmos 1833 Rocket 2.7 17:49:26 10° NNW 17:55:06 87° WSW 18:00:44 10° SSE
MONITOR-E 4.1 17:52:35 10° SSE 17:55:34 55° ENE 17:58:34 10° N
MTI 3.7 17:56:06 16° NNE 17:58:35 90° NE 18:01:48 10° SSW
Cosmos 2369 Rocket 3.9 17:55:58 10° SE 17:57:34 14° ESE 17:57:34 14° ESE
Meteor 1-10 Rocket 4.2 17:54:00 10° S 17:59:40 85° E 18:05:31 10° N
USA 116 4.4 17:59:36 10° N 18:03:54 56° WNW 18:07:39 10° SSW
NOAA 12 4.1 18:00:06 10° SSE 18:05:19 60° ENE 18:10:32 10° N
Cosmos 2297 3.8 18:00:05 10° SSW 18:05:48 79° WNW 18:11:15 12° NNE
Cosmos 1782 Rocket 4.0 18:02:16 10° NNW 18:06:34 62° W 18:10:52 10° S
Cosmos 405 2.8 18:04:09 10° N 18:07:45 70° E 18:11:19 10° SSE
Cosmos 2278 Rocket 3.7 18:03:13 10° WSW 18:08:19 33° WNW 18:13:27 10° N
ALOS 2.2 18:05:43 10° SSE 18:10:20 66° ENE 18:14:59 10° N
Cosmos 540 Rocket 4.0 18:05:31 10° NNW 18:10:37 61° WSW 18:15:41 10° S
Cosmos 1513 Rocket 4.4 18:04:44 10° S 18:11:02 85° E 18:17:16 10° N
YAOGAN 1 3.3 18:08:33 10° S 18:12:47 54° W 18:17:02 10° NNW
COSMO-SKYMED 1 2.6 18:09:08 10° N 18:13:30 83° WNW 18:17:50 10° SSW
Tiangong 1 3.0 18:14:48 10° SSW 18:15:52 18° S 18:15:52 18° S
USA 234 3.4 18:14:26 31° ENE 18:17:31 54° SE 18:23:52 10° SSW
COSMOS 2487 3.8 18:15:00 10° N 18:16:46 27° N 18:16:46 27° N
Cosmos 968 Rocket 3.4 18:13:27 10° S 18:18:32 62° ESE 18:20:41 34° NE
Cosmos 1441 Rocket 3.2 18:19:00 10° S 18:22:56 83° W 18:24:29 36° N
CZ-4C R/B 2.8 18:18:49 10° NNW 18:26:00 74° NE 18:32:49 15° SE
Meteor 1-11 Rocket 3.7 18:23:57 10° N 18:29:50 89° W 18:35:32 10° S
EO 1 Del DPAF 4.3 18:32:19 19° N 18:34:46 45° WNW 18:38:24 10° SW
DMSP B5D1-3 4.5 18:34:56 19° NNE 18:38:42 84° WNW 18:43:51 10° SSW
Nadezhda 4 Rocket 3.8 18:32:56 10° N 18:39:05 89° ENE 18:45:13 10° S
Cosmos 2151 Rocket 3.6 18:37:23 10° N 18:41:49 80° W 18:46:14 10° S
ERS-2 4.3 18:38:47 10° SSW 18:41:56 26° W 18:45:05 10° NW
Cosmos 1634 Rocket 4.3 18:37:31 10° SSE 18:42:05 43° SE 18:42:05 43° SE
Cosmos 2082 Rocket 3.9 18:42:26 10° NW 18:47:26 33° WSW 18:52:25 10° SSW
BREEZE-M DEB (TANK) 3.5 18:45:03 10° NW 18:46:38 35° NNW 18:46:38 35° NNW
OAO 3 Rocket 4.3 18:44:27 10° SW 18:48:44 33° S 18:48:44 33° S
Gblst 52 Del rocket 4.4 18:46:24 10° SW 18:51:35 55° SSE 18:51:35 55° SSE
Timation 2 Rocket 4.2 18:51:24 10° NNW 18:58:08 74° WSW 19:03:16 17° SSE
Cosmos 1092 Rocket 3.8 18:52:02 10° N 18:58:14 88° E 19:04:25 10° S
USA 229 DEB 3.5 19:03:06 10° SSW 19:09:50 85° SE 19:10:13 80° ENE
USA 229 3.5 19:03:11 10° SSW 19:09:56 84° ESE 19:10:16 81° ENE
Lacrosse 5 4.4 19:35:01 10° NNW 19:35:34 12° NNW 19:35:34 12° NNW
Cosmos 2369 Rocket 3.9 19:37:09 10° SSW 19:39:26 25° SW 19:39:26 25° SW
USA 234 4.1 20:01:47 44° WNW 20:01:47 44° WNW 20:06:44 10° WSW
